"read_dt","SO2 (ppb)","flags","PMT voltage (V)","lamp voltage (V)","lamp intensity (Hz)","internal temp (C)","react chamber temp (C)","sample flow (l/min)","pres (mmHg)","SO2 bkg (ppb)","SO2 coefficient"
2018-07-06 00:00:00,-2.665E-01,4C000000*,-702.6,967.427,90,29.7,45.0,0.407,735.7,2.1,1.050*
2018-07-06 00:01:00,-3.316E-01,4C000000*,-702.3,967.831,89,29.6,44.9,0.408,736.0,2.1,1.050*
2018-07-06 00:02:00,-2.770E-01,4C000000*,-702.6,967.427,90,29.7,45.2,0.407,735.7,2.1,1.050*
2018-07-06 00:03:00,-3.180E-01,4C000000*,-702.6,967.022,89,29.7,44.9,0.408,735.7,2.1,1.050*
2018-07-06 00:04:00,-4.012E-01,4C000000*,-702.6,967.427,89,29.9,45.2,0.408,736.0,2.1,1.050*
2018-07-06 00:05:00,-3.209E-01,4C000000*,-703.0,967.022,89,29.9,45.0,0.408,735.7,2.1,1.050*
2018-07-06 00:06:00,-2.787E-01,4C000000*,-703.0,967.427,88,29.9,45.0,0.407,736.0,2.1,1.050*
2018-07-06 00:07:00,-2.091E-01,4C000000*,-702.6,968.639,90,29.9,45.1,0.407,736.0,2.1,1.050*
2018-07-06 00:08:00,-3.026E-01,4C000000*,-702.3,969.044,90,29.9,44.8,0.407,735.7,2.1,1.050*
2018-07-06 00:09:00,-3.076E-01,4C000000*,-702.3,967.022,90,29.9,45.2,0.407,735.7,2.1,1.050*
2018-07-06 00:10:00,-2.535E-01,4C000000*,-702.6,967.022,91,29.9,45.0,0.407,735.7,2.1,1.050*
2018-07-06 00:11:00,-2.584E-01,4C000000*,-703.4,967.427,89,29.9,44.9,0.407,735.7,2.1,1.050*
2018-07-06 00:12:00,-2.854E-01,4C000000*,-702.3,967.831,91,29.9,45.0,0.408,735.7,2.1,1.050*
2018-07-06 00:13:00,-3.833E-01,4C000000*,-703.0,969.044,89,29.8,44.9,0.408,735.7,2.1,1.050*
2018-07-06 00:14:00,-2.724E-01,4C000000*,-702.3,968.639,90,29.8,45.2,0.407,735.7,2.1,1.050*
2018-07-06 00:15:00,-2.652E-01,4C000000*,-702.6,967.831,89,29.7,44.9,0.407,735.7,2.1,1.050*
2018-07-06 00:16:00,-2.382E-01,4C000000*,-701.9,967.831,90,29.7,45.0,0.408,735.7,2.1,1.050*
2018-07-06 00:17:00,-2.880E-01,4C000000*,-703.0,967.831,90,29.8,45.0,0.408,735.7,2.1,1.050*
2018-07-06 00:18:00,-2.354E-01,4C000000*,-702.3,968.235,89,29.8,45.0,0.407,735.7,2.1,1.050*
2018-07-06 00:19:00,-2.797E-01,4C000000*,-702.6,967.022,90,29.9,45.1,0.407,735.7,2.1,1.050*
2018-07-06 00:20:00,-2.347E-01,4C000000*,-702.6,966.618,90,29.9,44.8,0.407,736.0,2.1,1.050*
2018-07-06 00:21:00,-3.000E-01,4C000000*,-702.3,968.235,91,29.9,45.2,0.408,736.0,2.1,1.050*
2018-07-06 00:22:00,-2.917E-01,4C000000*,-702.6,968.235,90,29.8,44.9,0.407,736.0,2.1,1.050*
2018-07-06 00:23:00,-3.054E-01,4C000000*,-702.6,967.427,91,29.9,45.1,0.408,736.0,2.1,1.050*
2018-07-06 00:24:00,-3.571E-01,4C000000*,-702.6,966.618,90,29.9,44.9,0.407,736.0,2.1,1.050*
2018-07-06 00:25:00,-2.542E-01,4C000000*,-702.6,968.235,90,29.9,45.0,0.408,736.0,2.1,1.050*
2018-07-06 00:26:00,-3.399E-01,4C000000*,-702.6,967.022,90,29.9,45.0,0.408,735.7,2.1,1.050*
2018-07-06 00:27:00,-3.280E-01,4C000000*,-702.6,967.831,89,29.9,44.9,0.408,736.0,2.1,1.050*
2018-07-06 00:28:00,-2.820E-01,4C000000*,-702.3,967.831,91,29.9,45.2,0.408,736.0,2.1,1.050*
2018-07-06 00:29:00,-2.997E-01,4C000000*,-702.6,967.022,90,30.0,44.8,0.407,736.0,2.1,1.050*
2018-07-06 00:30:00,-3.480E-01,4C000000*,-702.6,967.427,90,30.0,44.9,0.407,736.0,2.1,1.050*
2018-07-06 00:31:00,-3.225E-01,4C000000*,-702.6,967.831,91,30.0,45.1,0.407,736.0,2.1,1.050*
2018-07-06 00:32:00,-3.168E-01,4C000000*,-702.3,967.022,89,30.0,44.9,0.408,736.3,2.1,1.050*
2018-07-06 00:33:00,-2.413E-01,4C000000*,-703.0,967.427,90,30.0,45.2,0.407,736.3,2.1,1.050*
2018-07-06 00:34:00,-2.601E-01,4C000000*,-702.6,966.214,91,30.0,44.8,0.407,736.3,2.1,1.050*
2018-07-06 00:35:00,-3.120E-01,4C000000*,-702.6,967.427,89,30.0,45.1,0.408,736.0,2.1,1.050*
2018-07-06 00:36:00,-3.357E-01,4C000000*,-703.0,967.427,91,30.0,45.0,0.408,736.0,2.1,1.050*
2018-07-06 00:37:00,-2.970E-01,4C000000*,-702.6,967.022,91,30.0,45.0,0.408,736.3,2.1,1.050*
2018-07-06 00:38:00,-3.772E-01,4C000000*,-702.6,967.427,89,30.0,45.1,0.408,736.3,2.1,1.050*
2018-07-06 00:39:00,-3.679E-01,4C000000*,-702.6,967.427,90,30.0,44.9,0.408,736.3,2.1,1.050*
2018-07-06 00:40:00,-2.634E-01,4C000000*,-702.3,967.831,90,30.0,45.2,0.408,736.0,2.1,1.050*
2018-07-06 00:41:00,-2.751E-01,4C000000*,-702.6,968.235,89,29.9,44.8,0.408,736.0,2.1,1.050*
2018-07-06 00:42:00,-2.994E-01,4C000000*,-702.6,967.427,91,30.0,45.1,0.407,736.3,2.1,1.050*
2018-07-06 00:43:00,-3.489E-01,4C000000*,-702.6,967.022,89,30.0,44.9,0.408,736.0,2.1,1.050*
2018-07-06 00:44:00,-2.331E-01,4C000000*,-702.6,968.639,90,30.0,45.0,0.408,736.3,2.1,1.050*
2018-07-06 00:45:00,-2.858E-01,4C000000*,-702.6,968.235,88,30.0,45.1,0.408,736.0,2.1,1.050*
2018-07-06 00:46:00,-2.458E-01,4C000000*,-702.6,967.022,90,30.0,45.0,0.407,736.3,2.1,1.050*
2018-07-06 00:47:00,-2.553E-01,4C000000*,-702.6,966.618,89,30.0,45.1,0.408,736.0,2.1,1.050*
2018-07-06 00:48:00,-3.233E-01,4C000000*,-702.6,967.831,89,30.0,44.9,0.408,736.3,2.1,1.050*
2018-07-06 00:49:00,-2.604E-01,4C000000*,-702.6,968.235,90,30.0,45.2,0.408,736.6,2.1,1.050*
2018-07-06 00:50:00,-2.443E-01,4C000000*,-702.3,969.044,90,30.0,44.8,0.408,736.3,2.1,1.050*
2018-07-06 00:51:00,-2.853E-01,4C000000*,-703.4,967.022,89,30.0,45.1,0.408,736.6,2.1,1.050*
2018-07-06 00:52:00,-3.715E-01,4C000000*,-702.3,967.831,90,30.0,45.0,0.408,736.3,2.1,1.050*
2018-07-06 00:53:00,-2.178E-01,4C000000*,-702.6,967.022,90,30.0,45.0,0.408,736.3,2.1,1.050*
2018-07-06 00:54:00,-2.598E-01,4C000000*,-702.6,967.427,89,30.0,45.0,0.408,736.3,2.1,1.050*
2018-07-06 00:55:00,-3.168E-01,4C000000*,-702.6,967.831,90,30.0,44.9,0.408,736.3,2.1,1.050*
2018-07-06 00:56:00,-2.997E-01,4C000000*,-702.6,966.618,90,30.0,45.2,0.408,736.3,2.1,1.050*
2018-07-06 00:57:00,-3.610E-01,4C000000*,-702.3,967.022,90,29.9,44.9,0.408,736.3,2.1,1.050*
2018-07-06 00:58:00,-3.065E-01,4C000000*,-702.6,968.235,90,30.0,45.1,0.408,736.3,2.1,1.050*
2018-07-06 00:59:00,-2.422E-01,4C000000*,-702.6,967.831,89,30.0,44.9,0.408,736.3,2.1,1.050*
2018-07-06 01:00:00,-3.638E-01,4C000000*,-703.4,967.427,90,30.1,45.0,0.408,736.3,2.1,1.050*
2018-07-06 01:01:00,-2.084E-01,4C000000*,-702.6,967.831,90,30.0,45.1,0.408,736.3,2.1,1.050*
2018-07-06 01:02:00,-3.113E-01,4C000000*,-702.6,968.235,89,30.0,44.9,0.408,736.3,2.1,1.050*
2018-07-06 01:03:00,-2.891E-01,4C000000*,-702.6,967.427,90,30.0,45.2,0.408,736.3,2.1,1.050*
2018-07-06 01:04:00,-2.639E-01,4C000000*,-702.6,967.831,90,30.0,44.9,0.408,736.3,2.1,1.050*
2018-07-06 01:05:00,-3.286E-01,4C000000*,-702.6,968.235,90,30.0,45.1,0.408,736.3,2.1,1.050*
2018-07-06 01:06:00,-2.882E-01,4C000000*,-702.6,967.022,90,30.0,44.8,0.408,736.3,2.1,1.050*
2018-07-06 01:07:00,-2.071E-01,4C000000*,-702.6,968.235,90,30.0,45.0,0.408,736.6,2.1,1.050*
2018-07-06 01:08:00,-2.722E-01,4C000000*,-702.6,968.639,89,30.0,45.1,0.408,736.3,2.1,1.050*
2018-07-06 01:09:00,-2.475E-01,4C000000*,-703.0,969.044,89,30.0,44.9,0.408,736.3,2.1,1.050*
2018-07-06 01:10:00,-2.991E-01,4C000000*,-702.6,968.639,90,30.1,45.1,0.408,736.3,2.1,1.050*
2018-07-06 01:11:00,-2.744E-01,4C000000*,-702.6,967.022,90,30.0,44.9,0.408,736.6,2.1,1.050*
2018-07-06 01:12:00,-2.516E-01,4C000000*,-702.3,968.235,91,30.0,45.1,0.408,736.3,2.1,1.050*
2018-07-06 01:13:00,-3.344E-01,4C000000*,-702.6,968.235,90,30.0,44.9,0.408,736.3,2.1,1.050*
2018-07-06 01:14:00,-3.303E-01,4C000000*,-702.6,968.235,90,30.0,45.1,0.408,736.6,2.1,1.050*
2018-07-06 01:15:00,-1.734E-01,4C000000*,-702.6,967.831,90,30.0,45.0,0.408,736.3,2.1,1.050*
2018-07-06 01:16:00,-2.940E-01,4C000000*,-703.0,966.214,90,30.0,45.0,0.408,736.3,2.1,1.050*
2018-07-06 01:17:00,-2.509E-01,4C000000*,-703.0,967.831,89,30.0,45.1,0.408,736.3,2.1,1.050*
2018-07-06 01:18:00,-3.628E-01,4C000000*,-703.0,968.235,89,29.9,44.9,0.408,736.3,2.1,1.050*
2018-07-06 01:19:00,-1.920E-01,4C000000*,-702.6,968.639,91,30.0,45.2,0.408,736.3,2.1,1.050*
2018-07-06 01:20:00,-2.577E-01,4C000000*,-702.6,967.427,89,29.9,44.9,0.408,736.3,2.1,1.050*
2018-07-06 01:21:00,-2.700E-01,4C000000*,-702.6,967.022,90,29.9,45.1,0.408,736.3,2.1,1.050*
2018-07-06 01:22:00,-3.013E-01,4C000000*,-703.0,967.427,89,30.0,44.9,0.408,736.3,2.1,1.050*
2018-07-06 01:23:00,-3.475E-01,4C000000*,-703.0,969.044,90,30.0,45.0,0.408,736.6,2.1,1.050*
2018-07-06 01:24:00,-3.783E-01,4C000000*,-702.6,967.427,88,30.0,45.0,0.408,736.3,2.1,1.050*
2018-07-06 01:25:00,-3.182E-01,4C000000*,-702.6,967.831,90,30.0,44.9,0.408,736.6,2.1,1.050*
2018-07-06 01:26:00,-3.250E-01,4C000000*,-702.6,969.044,90,29.9,45.2,0.408,736.3,2.1,1.050*
2018-07-06 01:27:00,-2.755E-01,4C000000*,-702.6,968.639,91,29.9,44.8,0.408,736.3,2.1,1.050*
2018-07-06 01:28:00,-2.205E-01,4C000000*,-702.6,967.831,88,30.0,45.1,0.408,736.6,2.1,1.050*
2018-07-06 01:29:00,-3.320E-01,4C000000*,-702.6,967.427,90,29.9,44.9,0.408,736.3,2.1,1.050*
2018-07-06 01:30:00,-3.424E-01,4C000000*,-702.3,966.618,91,30.0,45.0,0.408,736.6,2.1,1.050*
2018-07-06 01:31:00,-3.071E-01,4C000000*,-703.0,967.831,91,30.0,45.1,0.408,736.3,2.1,1.050*
2018-07-06 01:32:00,-3.421E-01,4C000000*,-702.3,967.831,90,30.0,44.8,0.408,736.3,2.1,1.050*
2018-07-06 01:33:00,-3.396E-01,4C000000*,-702.6,967.427,91,30.0,45.2,0.408,736.6,2.1,1.050*
2018-07-06 01:34:00,-2.624E-01,4C000000*,-702.3,967.022,90,30.0,44.9,0.408,736.3,2.1,1.050*
2018-07-06 01:35:00,-2.471E-01,4C000000*,-702.6,967.831,89,29.9,45.1,0.408,736.3,2.1,1.050*
2018-07-06 01:36:00,-3.267E-01,4C000000*,-702.6,967.427,90,30.0,44.8,0.408,736.3,2.1,1.050*
2018-07-06 01:37:00,-3.245E-01,4C000000*,-702.6,968.639,90,30.0,45.0,0.408,736.6,2.1,1.050*
2018-07-06 01:38:00,-2.656E-01,4C000000*,-703.4,968.235,90,29.9,45.2,0.408,736.3,2.1,1.050*
2018-07-06 01:39:00,-3.268E-01,4C000000*,-702.6,967.022,90,29.9,45.0,0.408,736.6,2.1,1.050*
2018-07-06 01:40:00,-2.988E-01,4C000000*,-703.0,968.235,89,29.9,45.1,0.408,736.3,2.1,1.050*
2018-07-06 01:41:00,-4.354E-01,4C000000*,-702.6,968.639,89,29.9,44.8,0.408,736.3,2.1,1.050*
2018-07-06 01:42:00,-2.323E-01,4C000000*,-702.6,967.831,88,29.9,45.2,0.408,736.6,2.1,1.050*
2018-07-06 01:43:00,-2.589E-01,4C000000*,-702.6,967.427,90,29.9,44.9,0.408,736.3,2.1,1.050*
2018-07-06 01:44:00,-2.338E-01,4C000000*,-703.0,967.831,89,29.9,45.0,0.408,736.3,2.1,1.050*
2018-07-06 01:45:00,-2.994E-01,4C000000*,-702.6,967.831,89,29.9,45.0,0.408,736.3,2.1,1.050*
2018-07-06 01:46:00,-2.431E-01,4C000000*,-702.3,968.639,89,29.9,44.9,0.408,736.6,2.1,1.050*
2018-07-06 01:47:00,-3.010E-01,4C000000*,-702.6,968.235,88,29.9,45.1,0.408,736.3,2.1,1.050*
2018-07-06 01:48:00,-2.932E-01,4C000000*,-702.6,968.235,90,29.9,44.8,0.408,736.6,2.1,1.050*
2018-07-06 01:49:00,-2.831E-01,4C000000*,-702.6,968.639,89,29.9,45.0,0.408,736.6,2.1,1.050*
2018-07-06 01:50:00,-2.631E-01,4C000000*,-702.6,968.639,90,29.9,45.1,0.408,736.3,2.1,1.050*
2018-07-06 01:51:00,-2.652E-01,4C000000*,-702.6,967.831,89,29.9,45.0,0.408,736.6,2.1,1.050*
2018-07-06 01:52:00,-3.069E-01,4C000000*,-702.6,968.235,89,29.9,45.0,0.408,736.3,2.1,1.050*
2018-07-06 01:53:00,-2.612E-01,4C000000*,-702.6,966.618,90,29.9,44.8,0.408,736.3,2.1,1.050*
2018-07-06 01:54:00,-2.814E-01,4C000000*,-702.6,967.427,90,29.9,45.2,0.408,736.6,2.1,1.050*
2018-07-06 01:55:00,-2.245E-01,4C000000*,-702.6,967.831,90,29.9,44.9,0.408,736.3,2.1,1.050*
2018-07-06 01:56:00,-3.092E-01,4C000000*,-702.6,968.235,89,29.9,45.1,0.408,736.3,2.1,1.050*
2018-07-06 01:57:00,-2.366E-01,4C000000*,-702.6,969.448,88,29.9,45.0,0.408,736.6,2.1,1.050*
2018-07-06 01:58:00,-2.814E-01,4C000000*,-702.6,967.022,90,29.8,45.0,0.408,736.6,2.1,1.050*
2018-07-06 01:59:00,-3.194E-01,4C000000*,-702.6,967.831,88,29.8,45.1,0.408,736.3,2.1,1.050*
2018-07-06 02:00:00,-2.831E-01,4C000000*,-702.6,967.022,90,29.8,44.9,0.408,736.6,2.1,1.050*
2018-07-06 02:01:00,-3.046E-01,4C000000*,-702.6,968.235,90,29.9,45.2,0.408,736.3,2.1,1.050*
2018-07-06 02:02:00,-3.040E-01,4C000000*,-702.6,968.639,90,29.9,44.8,0.408,736.3,2.1,1.050*
2018-07-06 02:03:00,-2.501E-01,4C000000*,-702.6,968.235,88,29.8,45.1,0.408,736.3,2.1,1.050*
2018-07-06 02:04:00,-2.342E-01,4C000000*,-702.3,967.022,90,29.8,44.9,0.408,736.3,2.1,1.050*
2018-07-06 02:05:00,-3.403E-01,4C000000*,-702.6,968.235,89,29.8,45.0,0.408,736.6,2.1,1.050*
2018-07-06 02:06:00,-2.338E-01,4C000000*,-702.6,967.831,90,29.9,45.1,0.408,736.6,2.1,1.050*
2018-07-06 02:07:00,-2.003E-01,4C000000*,-702.6,967.427,90,29.9,44.9,0.408,736.6,2.1,1.050*
2018-07-06 02:08:00,-2.965E-01,4C000000*,-702.6,967.831,90,29.9,45.2,0.408,736.6,2.1,1.050*
2018-07-06 02:09:00,-3.134E-01,4C000000*,-702.6,967.831,90,29.9,44.8,0.408,736.6,2.1,1.050*
2018-07-06 02:10:00,-2.941E-01,4C000000*,-703.0,968.235,89,29.9,45.1,0.408,736.6,2.1,1.050*
2018-07-06 02:11:00,-2.642E-01,4C000000*,-702.6,967.831,90,29.8,44.9,0.408,736.6,2.1,1.050*
2018-07-06 02:12:00,-2.851E-01,4C000000*,-702.6,969.852,90,29.8,45.0,0.408,736.6,2.1,1.050*
2018-07-06 02:13:00,-3.560E-01,4C000000*,-702.3,969.448,89,29.9,45.1,0.408,736.6,2.1,1.050*
2018-07-06 02:14:00,-2.992E-01,4C000000*,-702.6,968.235,91,29.8,44.9,0.408,736.3,2.1,1.050*
2018-07-06 02:15:00,-2.897E-01,4C000000*,-702.6,969.044,89,29.8,45.1,0.408,736.6,2.1,1.050*
2018-07-06 02:16:00,-3.019E-01,4C000000*,-702.6,968.235,89,29.8,44.9,0.408,736.6,2.1,1.050*
2018-07-06 02:17:00,-2.675E-01,4C000000*,-702.6,969.044,90,29.9,45.1,0.408,736.6,2.1,1.050*
2018-07-06 02:18:00,-2.247E-01,4C000000*,-702.3,968.235,90,29.8,44.9,0.408,736.6,2.1,1.050*
2018-07-06 02:19:00,-2.681E-01,4C000000*,-703.0,968.639,91,29.8,45.1,0.408,736.6,2.1,1.050*
2018-07-06 02:20:00,-2.190E-01,4C000000*,-702.6,967.831,89,29.8,44.9,0.408,736.3,2.1,1.050*
2018-07-06 02:21:00,-2.256E-01,4C000000*,-702.6,967.831,90,29.8,44.9,0.408,736.6,2.1,1.050*
2018-07-06 02:22:00,-3.272E-01,4C000000*,-702.6,967.831,90,29.8,45.0,0.408,736.6,2.1,1.050*
2018-07-06 02:23:00,-3.161E-01,4C000000*,-702.6,968.235,91,29.8,44.9,0.408,736.6,2.1,1.050*
2018-07-06 02:24:00,-2.920E-01,4C000000*,-702.6,969.044,90,29.7,45.2,0.408,736.6,2.1,1.050*
2018-07-06 02:25:00,-2.981E-01,4C000000*,-702.6,968.235,89,29.8,44.9,0.408,736.3,2.1,1.050*
2018-07-06 02:26:00,-2.607E-01,4C000000*,-703.0,967.022,90,29.8,45.1,0.408,736.6,2.1,1.050*
2018-07-06 02:27:00,-3.002E-01,4C000000*,-702.6,967.022,88,29.9,44.9,0.408,736.6,2.1,1.050*
2018-07-06 02:28:00,-2.407E-01,4C000000*,-702.6,967.427,89,29.8,45.0,0.408,736.6,2.1,1.050*
2018-07-06 02:29:00,-2.927E-01,4C000000*,-702.6,967.831,91,29.8,45.1,0.408,736.3,2.1,1.050*
2018-07-06 02:30:00,-3.152E-01,4C000000*,-702.6,968.639,88,29.7,44.9,0.408,736.6,2.1,1.050*
2018-07-06 02:31:00,-2.684E-01,4C000000*,-702.6,968.639,90,29.8,45.2,0.408,736.6,2.1,1.050*
2018-07-06 02:32:00,-3.515E-01,4C000000*,-702.6,969.852,89,29.8,44.8,0.408,736.6,2.1,1.050*
2018-07-06 02:33:00,-3.602E-01,4C000000*,-703.0,968.639,89,29.8,45.0,0.408,736.6,2.1,1.050*
2018-07-06 02:34:00,-3.249E-01,4C000000*,-703.0,967.831,91,29.8,45.0,0.408,736.6,2.1,1.050*
2018-07-06 02:35:00,-2.019E-01,4C000000*,-702.3,968.639,90,29.7,45.1,0.408,736.6,2.1,1.050*
2018-07-06 02:36:00,-1.789E-01,4C000000*,-702.6,967.427,90,29.7,45.1,0.408,736.6,2.1,1.050*
2018-07-06 02:37:00,-2.271E-01,4C000000*,-703.4,967.831,89,29.7,44.9,0.408,736.6,2.1,1.050*
2018-07-06 02:38:00,-2.395E-01,4C000000*,-703.0,969.044,90,29.7,45.1,0.408,736.6,2.1,1.050*
2018-07-06 02:39:00,-2.687E-01,4C000000*,-703.0,968.639,90,29.7,44.8,0.408,736.6,2.1,1.050*
2018-07-06 02:40:00,-3.618E-01,4C000000*,-702.6,968.235,88,29.7,45.1,0.408,736.6,2.1,1.050*
2018-07-06 02:41:00,-2.106E-01,4C000000*,-702.3,967.427,89,29.7,44.9,0.408,736.6,2.1,1.050*
2018-07-06 02:42:00,-3.256E-01,4C000000*,-702.3,967.831,90,29.7,45.0,0.408,736.6,2.1,1.050*
2018-07-06 02:43:00,-2.389E-01,4C000000*,-702.6,969.044,90,29.8,45.1,0.408,736.6,2.1,1.050*
2018-07-06 02:44:00,-2.917E-01,4C000000*,-702.3,967.831,91,29.7,45.0,0.408,736.6,2.1,1.050*
2018-07-06 02:45:00,-2.985E-01,4C000000*,-702.3,967.427,91,29.7,45.1,0.408,736.6,2.1,1.050*
2018-07-06 02:46:00,-2.882E-01,4C000000*,-702.6,967.427,90,29.6,44.9,0.408,736.6,2.1,1.050*
2018-07-06 02:47:00,-3.121E-01,4C000000*,-702.6,967.831,89,29.7,45.2,0.408,736.6,2.1,1.050*
2018-07-06 02:48:00,-3.334E-01,4C000000*,-702.6,967.831,90,29.7,44.9,0.408,736.6,2.1,1.050*
2018-07-06 02:49:00,-3.089E-01,4C000000*,-702.3,968.639,90,29.7,45.1,0.408,736.6,2.1,1.050*
2018-07-06 02:50:00,-3.147E-01,4C000000*,-702.6,969.044,91,29.6,45.0,0.408,736.6,2.1,1.050*
2018-07-06 02:51:00,-3.730E-01,4C000000*,-703.0,968.235,90,29.7,45.0,0.408,736.6,2.1,1.050*
2018-07-06 02:52:00,-2.684E-01,4C000000*,-702.6,968.235,91,29.7,45.1,0.408,736.6,2.1,1.050*
2018-07-06 02:53:00,-3.544E-01,4C000000*,-702.6,969.448,90,29.6,44.9,0.408,736.6,2.1,1.050*
2018-07-06 02:54:00,-3.211E-01,4C000000*,-702.3,968.639,90,29.7,45.2,0.408,736.6,2.1,1.050*
2018-07-06 02:55:00,-3.034E-01,4C000000*,-702.6,967.831,90,29.6,44.8,0.408,736.6,2.1,1.050*
2018-07-06 02:56:00,-3.157E-01,4C000000*,-702.6,969.044,89,29.6,45.1,0.408,736.6,2.1,1.050*
2018-07-06 02:57:00,-2.799E-01,4C000000*,-703.0,968.235,90,29.7,45.0,0.407,736.6,2.1,1.050*
2018-07-06 02:58:00,-2.534E-01,4C000000*,-702.3,967.831,90,29.7,44.8,0.408,736.6,2.1,1.050*
2018-07-06 02:59:00,-2.364E-01,4C000000*,-703.0,967.831,90,29.6,45.1,0.408,736.6,2.1,1.050*
2018-07-06 03:00:00,-2.829E-01,4C000000*,-702.6,967.831,90,29.7,44.9,0.408,736.6,2.1,1.050*
2018-07-06 03:01:00,-3.585E-01,4C000000*,-702.6,968.235,89,29.6,45.1,0.408,736.6,2.1,1.050*
2018-07-06 03:02:00,-2.165E-01,4C000000*,-702.6,967.831,88,29.7,44.9,0.408,736.6,2.1,1.050*
2018-07-06 03:03:00,-2.445E-01,4C000000*,-702.3,967.831,89,29.7,45.0,0.408,736.6,2.1,1.050*
2018-07-06 03:04:00,-2.655E-01,4C000000*,-702.6,967.427,90,29.6,45.0,0.408,736.6,2.1,1.050*
2018-07-06 03:05:00,-3.313E-01,4C000000*,-702.6,968.235,91,29.6,44.9,0.408,736.6,2.1,1.050*
2018-07-06 03:06:00,-2.518E-01,4C000000*,-702.6,967.831,90,29.6,45.2,0.408,736.6,2.1,1.050*
2018-07-06 03:07:00,-3.097E-01,4C000000*,-703.0,969.044,90,29.6,44.8,0.408,736.6,2.1,1.050*
2018-07-06 03:08:00,-2.903E-01,4C000000*,-702.6,969.044,90,29.6,45.1,0.408,736.6,2.1,1.050*
2018-07-06 03:09:00,-3.414E-01,4C000000*,-702.6,968.639,89,29.6,45.0,0.408,736.6,2.1,1.050*
2018-07-06 03:10:00,-3.253E-01,4C000000*,-702.6,967.831,89,29.6,45.0,0.408,736.6,2.1,1.050*
2018-07-06 03:11:00,-4.153E-01,4C000000*,-702.6,969.448,90,29.7,45.1,0.408,736.6,2.1,1.050*
2018-07-06 03:12:00,-3.207E-01,4C000000*,-702.6,969.044,88,29.6,44.9,0.408,736.6,2.1,1.050*
2018-07-06 03:13:00,-2.647E-01,4C000000*,-702.6,967.831,90,29.6,45.2,0.408,736.6,2.1,1.050*
2018-07-06 03:14:00,-3.147E-01,4C000000*,-702.6,969.448,90,29.6,44.8,0.408,736.6,2.1,1.050*
2018-07-06 03:15:00,-2.109E-01,4C000000*,-702.6,968.235,90,29.6,45.1,0.408,736.6,2.1,1.050*
2018-07-06 03:16:00,-3.198E-01,4C000000*,-702.6,969.044,89,29.5,44.9,0.408,736.9,2.1,1.050*
2018-07-06 03:17:00,-1.787E-01,4C000000*,-702.6,968.639,89,29.6,45.0,0.408,736.9,2.1,1.050*
2018-07-06 03:18:00,-3.134E-01,4C000000*,-702.6,969.448,90,29.5,45.0,0.408,736.6,2.1,1.050*
2018-07-06 03:19:00,-3.312E-01,4C000000*,-702.6,968.639,90,29.5,44.9,0.408,736.6,2.1,1.050*
2018-07-06 03:20:00,-2.128E-01,4C000000*,-702.6,968.639,89,29.5,45.1,0.408,736.6,2.1,1.050*
2018-07-06 03:21:00,-2.556E-01,4C000000*,-702.6,968.235,90,29.6,44.9,0.408,736.6,2.1,1.050*
2018-07-06 03:22:00,-2.726E-01,4C000000*,-702.6,968.639,88,29.5,45.2,0.408,736.6,2.1,1.050*
2018-07-06 03:23:00,-2.191E-01,4C000000*,-703.0,968.639,89,29.5,44.9,0.408,736.6,2.1,1.050*
2018-07-06 03:24:00,-2.014E-01,4C000000*,-703.0,968.639,90,29.5,45.0,0.408,736.6,2.1,1.050*
2018-07-06 03:25:00,-3.194E-01,4C000000*,-703.0,967.831,90,29.6,45.0,0.408,736.6,2.1,1.050*
2018-07-06 03:26:00,-2.875E-01,4C000000*,-702.6,969.448,90,29.6,44.9,0.408,736.6,2.1,1.050*
2018-07-06 03:27:00,-3.336E-01,4C000000*,-703.0,969.448,90,29.6,45.1,0.407,736.6,2.1,1.050*
2018-07-06 03:28:00,-3.343E-01,4C000000*,-702.6,968.639,89,29.6,44.9,0.408,736.6,2.1,1.050*
2018-07-06 03:29:00,-2.891E-01,4C000000*,-702.6,968.235,91,29.5,45.2,0.408,736.6,2.1,1.050*
2018-07-06 03:30:00,-2.198E-01,4C000000*,-703.0,968.639,91,29.6,44.8,0.408,736.6,2.1,1.050*
2018-07-06 03:31:00,-2.973E-01,4C000000*,-702.6,969.448,88,29.5,45.1,0.408,736.6,2.1,1.050*
2018-07-06 03:32:00,-2.789E-01,4C000000*,-702.6,969.044,90,29.6,44.9,0.408,736.6,2.1,1.050*
2018-07-06 03:33:00,-2.965E-01,4C000000*,-702.6,970.256,90,29.5,45.0,0.408,736.6,2.1,1.050*
2018-07-06 03:34:00,-2.794E-01,4C000000*,-702.6,968.235,90,29.5,45.1,0.408,736.6,2.1,1.050*
2018-07-06 03:35:00,-2.661E-01,4C000000*,-702.6,968.235,90,29.5,44.8,0.408,736.6,2.1,1.050*
2018-07-06 03:36:00,-2.449E-01,4C000000*,-702.6,968.639,90,29.5,45.2,0.408,736.6,2.1,1.050*
2018-07-06 03:37:00,-2.805E-01,4C000000*,-702.6,968.235,90,29.5,44.9,0.408,736.6,2.1,1.050*
2018-07-06 03:38:00,-3.637E-01,4C000000*,-702.6,968.235,90,29.5,45.1,0.408,736.6,2.1,1.050*
2018-07-06 03:39:00,-3.158E-01,4C000000*,-702.3,968.235,90,29.6,44.9,0.408,736.6,2.1,1.050*
2018-07-06 03:40:00,-3.207E-01,4C000000*,-702.6,969.044,89,29.4,45.0,0.408,736.9,2.1,1.050*
2018-07-06 03:41:00,-3.056E-01,4C000000*,-702.6,967.427,90,29.5,45.1,0.408,736.6,2.1,1.050*
2018-07-06 03:42:00,-3.341E-01,4C000000*,-702.6,969.448,90,29.5,44.9,0.408,736.6,2.1,1.050*
2018-07-06 03:43:00,-2.390E-01,4C000000*,-703.0,968.235,90,29.5,45.1,0.408,736.6,2.1,1.050*
2018-07-06 03:44:00,-2.594E-01,4C000000*,-702.3,967.427,90,29.5,44.8,0.408,736.6,2.1,1.050*
2018-07-06 03:45:00,-2.821E-01,4C000000*,-702.6,968.639,90,29.5,45.1,0.408,736.6,2.1,1.050*
2018-07-06 03:46:00,-2.371E-01,4C000000*,-702.6,968.639,90,29.5,44.9,0.408,736.9,2.1,1.050*
2018-07-06 03:47:00,-2.641E-01,4C000000*,-702.6,968.235,90,29.4,45.0,0.409,736.9,2.1,1.050*
2018-07-06 03:48:00,-2.840E-01,4C000000*,-703.0,969.448,90,29.5,45.0,0.408,736.9,2.1,1.050*
2018-07-06 03:49:00,-4.121E-01,4C000000*,-702.6,967.831,91,29.6,45.0,0.408,736.9,2.1,1.050*
2018-07-06 03:50:00,-2.602E-01,4C000000*,-702.3,970.256,90,29.5,45.0,0.408,736.9,2.1,1.050*
2018-07-06 03:51:00,-3.414E-01,4C000000*,-702.6,968.639,90,29.5,44.9,0.408,736.9,2.1,1.050*
2018-07-06 03:52:00,-3.181E-01,4C000000*,-702.6,968.639,90,29.5,45.2,0.408,736.6,2.1,1.050*
2018-07-06 03:53:00,-3.129E-01,4C000000*,-703.0,967.427,90,29.4,44.8,0.408,736.9,2.1,1.050*
2018-07-06 03:54:00,-1.991E-01,4C000000*,-702.6,967.831,88,29.6,45.0,0.408,736.9,2.1,1.050*
2018-07-06 03:55:00,-2.888E-01,4C000000*,-702.6,968.639,90,29.5,45.0,0.408,736.6,2.1,1.050*
2018-07-06 03:56:00,-2.447E-01,4C000000*,-702.6,968.235,90,29.5,45.0,0.408,736.9,2.1,1.050*
2018-07-06 03:57:00,-2.546E-01,4C000000*,-702.6,969.044,90,29.5,45.1,0.408,736.9,2.1,1.050*
2018-07-06 03:58:00,-2.681E-01,4C000000*,-702.3,968.639,89,29.6,44.9,0.408,736.6,2.1,1.050*
2018-07-06 03:59:00,-2.051E-01,4C000000*,-703.0,969.852,90,29.5,45.1,0.408,736.6,2.1,1.050*
2018-07-06 04:00:00,-2.795E-01,4C000000*,-702.3,968.639,91,29.4,45.0,0.408,736.6,2.1,1.050*
2018-07-06 04:01:00,-2.869E-01,4C000000*,-702.6,968.639,88,29.5,45.1,0.408,736.6,2.1,1.050*
2018-07-06 04:02:00,-2.782E-01,4C000000*,-702.6,969.044,90,29.4,44.8,0.408,736.6,2.1,1.050*
2018-07-06 04:03:00,-3.243E-01,4C000000*,-703.0,967.831,90,29.5,45.1,0.408,736.6,2.1,1.050*
2018-07-06 04:04:00,-4.053E-01,4C000000*,-702.6,968.235,90,29.4,44.9,0.408,736.6,2.1,1.050*
2018-07-06 04:05:00,-3.128E-01,4C000000*,-702.6,967.427,90,29.4,45.0,0.408,736.6,2.1,1.050*
2018-07-06 04:06:00,-2.934E-01,4C000000*,-702.6,967.831,90,29.4,45.1,0.408,736.3,2.1,1.050*
2018-07-06 04:07:00,-2.233E-01,4C000000*,-702.3,969.852,91,29.4,44.9,0.408,736.6,2.1,1.050*
2018-07-06 04:08:00,-3.783E-01,4C000000*,-702.3,969.044,90,29.4,45.1,0.408,736.6,2.1,1.050*
2018-07-06 04:09:00,-3.164E-01,4C000000*,-703.0,969.448,89,29.4,44.9,0.408,736.9,2.1,1.050*
2018-07-06 04:10:00,-3.095E-01,4C000000*,-702.6,969.044,90,29.4,45.2,0.408,736.6,2.1,1.050*
2018-07-06 04:11:00,-1.814E-01,4C000000*,-702.3,969.852,90,29.4,44.8,0.408,736.6,2.1,1.050*
2018-07-06 04:12:00,-1.875E-01,4C000000*,-702.6,968.639,90,29.4,45.1,0.408,736.6,2.1,1.050*
2018-07-06 04:13:00,-2.657E-01,4C000000*,-702.6,968.639,91,29.4,44.9,0.407,736.6,2.1,1.050*
2018-07-06 04:14:00,-2.197E-01,4C000000*,-702.6,969.044,89,29.4,45.0,0.408,736.6,2.1,1.050*